| time (UTC) | temp F | wind direction | speed knots | gust knots | rain 1hr in | rain 24hr in | rain mn in | humidity % | barometer mb |
| 20260510192517 | 75 | 301 | 1.7 | 8.7 | 0.00 | 0.10 | 0.02 | 51 | 1012.3 |
| 20260510192019 | 75 | 0 | 0.9 | 7.8 | 0.00 | 0.10 | 0.02 | 52 | 1012.3 |
| 20260510191533 | 75 | 331 | 1.7 | 13.0 | 0.00 | 0.10 | 0.02 | 52 | 1012.3 |
| 20260510191022 | 75 | 0 | 0.9 | 13.0 | 0.00 | 0.10 | 0.02 | 53 | 1012.4 |
| 20260510190515 | 75 | 315 | 2.6 | 13.0 | 0.00 | 0.10 | 0.02 | 51 | 1012.4 |
| 20260510190038 | 75 | 0 | 1.7 | 10.4 | 0.00 | 0.10 | 0.02 | 52 | 1012.3 |
| 20260510185520 | 75 | 0 | 1.7 | 10.4 | 0.00 | 0.10 | 0.02 | 51 | 1012.6 |
| 20260510185017 | 75 | 0 | 4.3 | 10.4 | 0.00 | 0.10 | 0.02 | 50 | 1012.5 |
| 20260510184540 | 75 | 0 | 1.7 | 8.7 | 0.00 | 0.10 | 0.02 | 52 | 1012.7 |
| 20260510184019 | 76 | 12 | 0.9 | 7.0 | 0.00 | 0.10 | 0.02 | 50 | 1012.5 |
| 20260510183519 | 76 | 360 | 0.9 | 7.0 | 0.00 | 0.10 | 0.02 | 53 | 1012.7 |
| 20260510183038 | 75 | 301 | 0.0 | 8.7 | 0.00 | 0.10 | 0.02 | 55 | 1012.5 |
| 20260510182517 | 73 | 0 | 0.9 | 8.7 | 0.00 | 0.10 | 0.02 | 55 | 1012.6 |
| 20260510182017 | 73 | 0 | 1.7 | 8.7 | 0.00 | 0.10 | 0.02 | 56 | 1012.5 |
| 20260510181549 | 72 | 293 | 1.7 | 8.7 | 0.00 | 0.10 | 0.02 | 56 | 1012.6 |
| 20260510181018 | 73 | 0 | 1.7 | 8.7 | 0.00 | 0.10 | 0.02 | 56 | 1012.7 |
| 20260510180519 | 73 | 0 | 0.9 | 8.7 | 0.00 | 0.10 | 0.02 | 55 | 1012.6 |
| 20260510180049 | 74 | 0 | 1.7 | 6.1 | 0.00 | 0.10 | 0.02 | 56 | 1012.6 |
| 20260510175518 | 74 | 0 | 0.9 | 7.8 | 0.00 | 0.10 | 0.02 | 57 | 1012.5 |
| 20260510175016 | 74 | 360 | 0.0 | 8.7 | 0.00 | 0.10 | 0.02 | 57 | 1012.5 |
| 20260510174537 | 74 | 43 | 0.0 | 8.7 | 0.00 | 0.10 | 0.02 | 57 | 1012.4 |
| 20260510174019 | 74 | 298 | 0.9 | 7.8 | 0.00 | 0.10 | 0.02 | 57 | 1012.5 |
| 20260510173516 | 74 | 0 | 0.0 | 4.3 | 0.00 | 0.10 | 0.02 | 59 | 1012.5 |
| 20260510173035 | 74 | 0 | 0.0 | 9.6 | 0.00 | 0.10 | 0.02 | 59 | 1012.5 |
| 20260510172516 | 73 | 0 | 0.0 | 9.6 | 0.00 | 0.10 | 0.02 | 56 | 1012.4 |
| 20260510172019 | 74 | 234 | 1.7 | 7.0 | 0.00 | 0.10 | 0.02 | 56 | 1012.4 |
| 20260510171540 | 74 | 0 | 0.0 | 4.3 | 0.00 | 0.10 | 0.02 | 60 | 1012.3 |
| 20260510171017 | 74 | 304 | 0.0 | 3.5 | 0.00 | 0.10 | 0.02 | 60 | 1012.3 |
| 20260510170517 | 74 | 327 | 0.0 | 3.5 | 0.00 | 0.10 | 0.02 | 59 | 1012.4 |
| 20260510170036 | 74 | 206 | 0.0 | 2.6 | 0.00 | 0.10 | 0.02 | 61 | 1012.3 |
| 20260510165520 | 73 | 0 | 0.0 | 2.6 | 0.00 | 0.10 | 0.02 | 63 | 1012.3 |
| 20260510165021 | 72 | 0 | 0.0 | 2.6 | 0.00 | 0.10 | 0.02 | 65 | 1012.4 |
| 20260510164545 | 71 | 319 | 0.0 | 1.7 | 0.00 | 0.10 | 0.02 | 67 | 1012.4 |
| 20260510164018 | 71 | 0 | 0.0 | 5.2 | 0.00 | 0.10 | 0.02 | 67 | 1012.5 |
| 20260510163517 | 71 | 0 | 0.0 | 5.2 | 0.00 | 0.10 | 0.02 | 65 | 1012.4 |
| 20260510163030 | 72 | 0 | 0.0 | 3.5 | 0.00 | 0.10 | 0.02 | 67 | 1012.5 |
| 20260510162517 | 71 | 211 | 0.0 | 3.5 | 0.00 | 0.10 | 0.02 | 67 | 1012.5 |
| 20260510162018 | 70 | 0 | 0.0 | 0.9 | 0.00 | 0.10 | 0.02 | 72 | 1012.5 |
| 20260510161535 | 71 | 0 | 0.0 | 0.9 | 0.00 | 0.10 | 0.02 | 67 | 1012.6 |
| 20260510161017 | 71 | 0 | 0.0 | 0.0 | 0.00 | 0.10 | 0.02 | 68 | 1012.7 |
| 20260510160516 | 70 | 0 | 0.0 | 1.7 | 0.00 | 0.10 | 0.02 | 71 | 1012.5 |
| 20260510160038 | 68 | 0 | 0.0 | 1.7 | 0.00 | 0.10 | 0.02 | 74 | 1012.5 |
| 20260510155519 | 69 | 123 | 0.0 | 2.6 | 0.00 | 0.10 | 0.02 | 71 | 1012.5 |
| 20260510155015 | 68 | 0 | 0.0 | 2.6 | 0.00 | 0.10 | 0.02 | 73 | 1012.6 |
| 20260510154537 | 67 | 250 | 0.0 | 2.6 | 0.00 | 0.10 | 0.02 | 74 | 1012.8 |
| 20260510154018 | 67 | 0 | 0.0 | 1.7 | 0.00 | 0.10 | 0.02 | 76 | 1013.0 |
| 20260510153517 | 67 | 0 | 0.0 | 1.7 | 0.00 | 0.10 | 0.02 | 75 | 1013.1 |
| 20260510153035 | 66 | 0 | 0.0 | 1.7 | 0.00 | 0.10 | 0.02 | 76 | 1013.0 |
| 20260510152518 | 65 | 0 | 0.0 | 1.7 | 0.00 | 0.10 | 0.02 | 75 | 1012.9 |
| 20260510152016 | 65 | 0 | 0.0 | 1.7 | 0.00 | 0.10 | 0.02 | 76 | 1013.0 |
| 20260510151538 | 66 | 0 | 0.0 | 1.7 | 0.00 | 0.10 | 0.02 | 74 | 1013.1 |
| 20260510151018 | 66 | 0 | 0.0 | 0.0 | 0.00 | 0.10 | 0.02 | 78 | 1013.2 |
| 20260510150516 | 64 | 0 | 0.0 | 1.7 | 0.00 | 0.10 | 0.02 | 77 | 1013.1 |
| 20260510150047 | 63 | 0 | 0.0 | 2.6 | 0.00 | 0.10 | 0.02 | 82 | 1013.1 |
| 20260510145516 | 62 | 0 | 0.0 | 2.6 | 0.00 | 0.10 | 0.02 | 82 | 1013.1 |
| 20260510145015 | 63 | 0 | 0.0 | 2.6 | 0.00 | 0.10 | 0.02 | 81 | 1013.0 |
| 20260510144537 | 62 | 0 | 0.0 | 3.5 | 0.00 | 0.10 | 0.02 | 83 | 1013.0 |
| 20260510144019 | 62 | 0 | 0.0 | 3.5 | 0.00 | 0.10 | 0.02 | 83 | 1013.1 |
| 20260510143518 | 61 | 0 | 0.0 | 2.6 | 0.00 | 0.10 | 0.02 | 85 | 1013.0 |
| 20260510143038 | 61 | 0 | 0.0 | 0.9 | 0.00 | 0.10 | 0.02 | 86 | 1013.1 |
| 20260510142518 | 59 | 0 | 0.0 | 0.9 | 0.00 | 0.10 | 0.02 | 87 | 1013.1 |
| 20260510142020 | 59 | 0 | 0.0 | 0.9 | 0.00 | 0.10 | 0.02 | 89 | 1013.1 |
| 20260510141533 | 58 | 0 | 0.0 | 0.9 | 0.00 | 0.10 | 0.02 | 89 | 1012.9 |
| 20260510141015 | 58 | 0 | 0.0 | 0.0 | 0.00 | 0.10 | 0.02 | 88 | 1012.9 |
| 20260510140515 | 58 | 0 | 0.0 | 0.0 | 0.00 | 0.10 | 0.02 | 89 | 1012.9 |
| 20260510140030 | 57 | 0 | 0.0 | 0.0 | 0.00 | 0.10 | 0.02 | 93 | 1013.0 |
| 20260510135521 | 57 | 0 | 0.0 | 0.0 | 0.00 | 0.10 | 0.02 | 95 | 1012.9 |
| 20260510135021 | 55 | 0 | 0.0 | 0.0 | 0.00 | 0.10 | 0.02 | 96 | 1013.0 |
| 20260510134536 | 54 | 0 | 0.0 | 0.0 | 0.00 | 0.10 | 0.02 | 95 | 1013.0 |
| 20260510134018 | 54 | 0 | 0.0 | 0.0 | 0.00 | 0.10 | 0.02 | 96 | 1012.8 |
| 20260510133518 | 54 | 0 | 0.0 | 0.0 | 0.00 | 0.10 | 0.02 | 96 | 1012.8 |
| 20260510133034 | 54 | 0 | 0.0 | 0.0 | 0.00 | 0.10 | 0.02 | 96 | 1012.9 |
| 20260510132518 | 54 | 0 | 0.0 | 0.0 | 0.00 | 0.10 | 0.02 | 96 | 1013.1 |
| 20260510132020 | 54 | 0 | 0.0 | 0.0 | 0.00 | 0.10 | 0.02 | 96 | 1013.1 |
| 20260510131535 | 53 | 0 | 0.0 | 0.0 | 0.00 | 0.10 | 0.02 | 96 | 1013.1 |
| 20260510131017 | 53 | 0 | 0.0 | 0.0 | 0.00 | 0.10 | 0.02 | 96 | 1013.2 |
| 20260510130526 | 53 | 0 | 0.0 | 0.0 | 0.00 | 0.10 | 0.02 | 96 | 1013.4 |
| 20260510130034 | 53 | 0 | 0.0 | 0.0 | 0.00 | 0.10 | 0.02 | 96 | 1013.2 |
| 20260510125519 | 53 | 0 | 0.0 | 0.0 | 0.00 | 0.10 | 0.02 | 96 | 1013.2 |
| 20260510125019 | 53 | 0 | 0.0 | 0.0 | 0.00 | 0.10 | 0.02 | 96 | 1013.0 |
| 20260510124536 | 53 | 0 | 0.0 | 0.0 | 0.00 | 0.10 | 0.02 | 96 | 1012.9 |
| 20260510124018 | 53 | 0 | 0.0 | 0.0 | 0.00 | 0.10 | 0.02 | 96 | 1012.7 |
| 20260510123520 | 53 | 0 | 0.0 | 2.6 | 0.00 | 0.10 | 0.02 | 96 | 1012.7 |
| 20260510123036 | 52 | 0 | 0.0 | 2.6 | 0.00 | 0.10 | 0.02 | 96 | 1012.5 |
| 20260510122519 | 52 | 0 | 0.0 | 0.0 | 0.00 | 0.10 | 0.02 | 96 | 1012.5 |
| 20260510122018 | 52 | 0 | 0.0 | 0.0 | 0.00 | 0.10 | 0.02 | 96 | 1012.5 |
| 20260510121534 | 52 | 0 | 0.0 | 0.0 | 0.00 | 0.10 | 0.02 | 96 | 1012.7 |
| 20260510121019 | 52 | 0 | 0.0 | 0.0 | 0.00 | 0.10 | 0.02 | 96 | 1012.1 |
| 20260510120522 | 52 | 0 | 0.0 | 0.9 | 0.00 | 0.10 | 0.02 | 96 | 1012.2 |
| 20260510120035 | 52 | 0 | 0.0 | 0.9 | 0.00 | 0.10 | 0.02 | 96 | 1012.3 |
| 20260510115524 | 52 | 0 | 0.0 | 0.0 | 0.00 | 0.10 | 0.02 | 96 | 1011.9 |
| 20260510115023 | 52 | 0 | 0.0 | 0.0 | 0.00 | 0.10 | 0.02 | 96 | 1012.0 |
| 20260510114542 | 51 | 0 | 0.0 | 0.0 | 0.00 | 0.10 | 0.02 | 96 | 1012.1 |
| 20260510114017 | 51 | 0 | 0.0 | 0.0 | 0.00 | 0.10 | 0.02 | 96 | 1012.2 |
| 20260510113517 | 51 | 0 | 0.0 | 0.0 | 0.00 | 0.10 | 0.02 | 96 | 1011.9 |
| 20260510113036 | 51 | 0 | 0.0 | 0.0 | 0.00 | 0.10 | 0.02 | 96 | 1012.1 |
| 20260510112518 | 51 | 0 | 0.0 | 0.0 | 0.00 | 0.10 | 0.02 | 96 | 1012.1 |
| 20260510112018 | 51 | 0 | 0.0 | 0.0 | 0.00 | 0.10 | 0.02 | 96 | 1012.2 |
| 20260510111539 | 51 | 0 | 0.0 | 0.0 | 0.00 | 0.10 | 0.02 | 96 | 1012.2 |
| 20260510111018 | 51 | 0 | 0.0 | 0.0 | 0.01 | 0.10 | 0.02 | 96 | 1012.1 |
| 20260510110519 | 51 | 0 | 0.0 | 0.0 | 0.01 | 0.10 | 0.02 | 96 | 1012.0 |
| 20260510110042 | 51 | 0 | 0.0 | 0.0 | 0.01 | 0.10 | 0.02 | 96 | 1012.0 |
| 20260510105519 | 51 | 0 | 0.0 | 0.0 | 0.01 | 0.10 | 0.02 | 96 | 1011.8 |
| 20260510105017 | 51 | 0 | 0.0 | 0.0 | 0.01 | 0.10 | 0.02 | 96 | 1011.5 |
| 20260510104534 | 51 | 0 | 0.0 | 0.0 | 0.01 | 0.10 | 0.02 | 96 | 1011.6 |
| 20260510104019 | 51 | 0 | 0.0 | 0.0 | 0.01 | 0.10 | 0.02 | 96 | 1011.6 |
| 20260510103518 | 50 | 0 | 0.0 | 0.0 | 0.01 | 0.10 | 0.02 | 96 | 1011.6 |
| 20260510103040 | 50 | 0 | 0.0 | 0.0 | 0.01 | 0.10 | 0.02 | 96 | 1011.4 |
| 20260510102517 | 50 | 0 | 0.0 | 0.0 | 0.01 | 0.10 | 0.02 | 96 | 1011.4 |
| 20260510102019 | 50 | 0 | 0.0 | 0.0 | 0.01 | 0.10 | 0.02 | 96 | 1011.5 |
| 20260510101536 | 50 | 0 | 0.0 | 0.0 | 0.01 | 0.10 | 0.02 | 96 | 1011.6 |
| 20260510101019 | 50 | 0 | 0.0 | 0.0 | 0.00 | 0.09 | 0.01 | 96 | 1011.4 |
| 20260510100517 | 50 | 0 | 0.0 | 0.0 | 0.00 | 0.09 | 0.01 | 96 | 1011.6 |
| 20260510100043 | 50 | 0 | 0.0 | 0.0 | 0.00 | 0.09 | 0.01 | 96 | 1011.4 |
| 20260510095524 | 50 | 0 | 0.0 | 0.0 | 0.00 | 0.09 | 0.01 | 96 | 1011.3 |
| 20260510095018 | 50 | 0 | 0.0 | 0.0 | 0.00 | 0.09 | 0.01 | 96 | 1011.3 |
| 20260510094544 | 50 | 0 | 0.0 | 0.0 | 0.00 | 0.09 | 0.01 | 96 | 1011.4 |
| 20260510094018 | 51 | 0 | 0.0 | 0.0 | 0.00 | 0.09 | 0.01 | 96 | 1011.2 |
| 20260510093517 | 51 | 0 | 0.0 | 0.0 | 0.00 | 0.09 | 0.01 | 96 | 1011.3 |
| 20260510093036 | 51 | 0 | 0.0 | 0.0 | 0.00 | 0.09 | 0.01 | 96 | 1011.4 |
| 20260510092520 | 51 | 0 | 0.0 | 0.0 | 0.00 | 0.09 | 0.01 | 96 | 1011.5 |
| 20260510092019 | 51 | 0 | 0.0 | 0.0 | 0.00 | 0.09 | 0.01 | 96 | 1011.5 |
| 20260510091542 | 51 | 0 | 0.0 | 0.0 | 0.00 | 0.09 | 0.01 | 96 | 1011.4 |
| 20260510091019 | 51 | 0 | 0.0 | 0.0 | 0.00 | 0.09 | 0.01 | 96 | 1011.5 |
| 20260510090519 | 51 | 0 | 0.0 | 0.0 | 0.00 | 0.09 | 0.01 | 96 | 1011.4 |
| 20260510090041 | 51 | 0 | 0.0 | 0.9 | 0.00 | 0.09 | 0.01 | 96 | 1011.5 |
| 20260510085518 | 51 | 0 | 0.0 | 0.9 | 0.00 | 0.09 | 0.01 | 96 | 1011.5 |
| 20260510085018 | 51 | 0 | 0.0 | 0.9 | 0.00 | 0.09 | 0.01 | 96 | 1011.6 |
| 20260510084536 | 51 | 0 | 0.0 | 1.7 | 0.00 | 0.09 | 0.01 | 96 | 1011.8 |
| 20260510084018 | 51 | 0 | 0.0 | 2.6 | 0.00 | 0.09 | 0.01 | 96 | 1011.6 |
| 20260510083518 | 51 | 0 | 0.0 | 2.6 | 0.00 | 0.09 | 0.01 | 96 | 1011.5 |
| 20260510083051 | 51 | 0 | 0.0 | 2.6 | 0.00 | 0.09 | 0.01 | 96 | 1011.6 |
| 20260510082519 | 51 | 0 | 0.0 | 2.6 | 0.00 | 0.09 | 0.01 | 96 | 1011.4 |
| 20260510082022 | 51 | 0 | 0.0 | 2.6 | 0.00 | 0.09 | 0.01 | 96 | 1011.6 |
| 20260510081537 | 51 | 0 | 0.0 | 2.6 | 0.00 | 0.09 | 0.01 | 96 | 1011.6 |
| 20260510081018 | 51 | 0 | 0.0 | 0.0 | 0.00 | 0.09 | 0.01 | 96 | 1011.3 |
| 20260510080520 | 51 | 0 | 0.0 | 0.0 | 0.00 | 0.09 | 0.01 | 96 | 1011.1 |
| 20260510080033 | 51 | 0 | 0.0 | 0.0 | 0.00 | 0.09 | 0.01 | 96 | 1011.0 |
| 20260510075519 | 51 | 0 | 0.0 | 0.0 | 0.00 | 0.09 | 0.01 | 95 | 1010.9 |
| 20260510075017 | 51 | 0 | 0.0 | 0.0 | 0.00 | 0.09 | 0.01 | 95 | 1010.8 |
| 20260510074547 | 51 | 0 | 0.0 | 0.0 | 0.00 | 0.09 | 0.01 | 95 | 1010.8 |
| 20260510074039 | 51 | 0 | 0.0 | 0.0 | 0.00 | 0.09 | 0.01 | 95 | 1010.8 |
| 20260510073518 | 51 | 0 | 0.0 | 0.0 | 0.00 | 0.09 | 0.01 | 95 | 1010.8 |
| 20260510073045 | 51 | 0 | 0.0 | 0.0 | 0.00 | 0.09 | 0.01 | 95 | 1010.8 |
| 20260510072520 | 51 | 0 | 0.0 | 0.0 | 0.00 | 0.09 | 0.01 | 95 | 1010.8 |
| 20260510072020 | 51 | 0 | 0.0 | 0.0 | 0.00 | 0.09 | 0.01 | 95 | 1010.7 |
| 20260510071539 | 51 | 0 | 0.0 | 0.0 | 0.00 | 0.09 | 0.01 | 95 | 1010.7 |
| 20260510071019 | 51 | 0 | 0.0 | 0.0 | 0.00 | 0.09 | 0.01 | 95 | 1010.8 |
| 20260510070519 | 51 | 0 | 0.0 | 0.0 | 0.00 | 0.09 | 0.01 | 95 | 1010.7 |
| 20260510070034 | 51 | 0 | 0.0 | 0.9 | 0.00 | 0.09 | 0.01 | 95 | 1010.7 |
| 20260510065519 | 51 | 0 | 0.0 | 2.6 | 0.00 | 0.09 | 0.01 | 95 | 1010.8 |
| 20260510065024 | 51 | 0 | 0.0 | 2.6 | 0.00 | 0.09 | 0.01 | 95 | 1010.9 |
| 20260510064540 | 51 | 0 | 0.0 | 2.6 | 0.00 | 0.09 | 0.01 | 95 | 1011.0 |
| 20260510064018 | 51 | 0 | 0.0 | 0.9 | 0.00 | 0.09 | 0.01 | 95 | 1010.8 |
| 20260510063518 | 51 | 0 | 0.0 | 0.9 | 0.00 | 0.09 | 0.01 | 95 | 1010.8 |
| 20260510063035 | 51 | 0 | 0.0 | 0.0 | 0.00 | 0.09 | 0.01 | 95 | 1010.9 |
| 20260510062518 | 50 | 0 | 0.0 | 0.0 | 0.00 | 0.09 | 0.01 | 95 | 1010.7 |
| 20260510062016 | 50 | 0 | 0.0 | 0.0 | 0.00 | 0.09 | 0.01 | 95 | 1010.8 |
| 20260510061536 | 50 | 0 | 0.0 | 0.0 | 0.00 | 0.09 | 0.01 | 95 | 1010.7 |
| 20260510061018 | 50 | 0 | 0.0 | 0.0 | 0.00 | 0.09 | 0.01 | 95 | 1010.7 |
| 20260510060521 | 50 | 0 | 0.0 | 0.0 | 0.00 | 0.09 | 0.01 | 95 | 1010.6 |
| 20260510060041 | 50 | 0 | 0.0 | 0.0 | 0.01 | 0.09 | 0.01 | 95 | 1010.7 |
| 20260510055518 | 50 | 0 | 0.0 | 0.0 | 0.01 | 0.09 | 0.01 | 95 | 1010.6 |
| 20260510055019 | 50 | 0 | 0.0 | 0.0 | 0.01 | 0.09 | 0.01 | 95 | 1010.8 |
| 20260510054539 | 50 | 0 | 0.0 | 0.0 | 0.01 | 0.09 | 0.01 | 95 | 1010.7 |
| 20260510054023 | 50 | 0 | 0.0 | 0.0 | 0.01 | 0.09 | 0.01 | 95 | 1010.7 |
| 20260510053518 | 50 | 0 | 0.0 | 0.0 | 0.01 | 0.09 | 0.01 | 95 | 1010.8 |
| 20260510053034 | 50 | 0 | 0.0 | 0.0 | 0.01 | 0.09 | 0.01 | 95 | 1010.7 |
| 20260510052519 | 50 | 0 | 0.0 | 0.0 | 0.01 | 0.09 | 0.01 | 95 | 1010.7 |
| 20260510052019 | 50 | 0 | 0.0 | 0.0 | 0.01 | 0.09 | 0.01 | 95 | 1010.8 |
| 20260510051536 | 50 | 0 | 0.0 | 0.0 | 0.01 | 0.09 | 0.01 | 95 | 1010.8 |
| 20260510051019 | 50 | 0 | 0.0 | 0.0 | 0.01 | 0.09 | 0.01 | 95 | 1010.9 |
| 20260510050520 | 50 | 0 | 0.0 | 0.0 | 0.01 | 0.09 | 0.01 | 95 | 1010.9 |
| 20260510050037 | 50 | 0 | 0.0 | 0.0 | 0.00 | 0.08 | 0.00 | 95 | 1011.0 |
| 20260510045521 | 50 | 0 | 0.0 | 0.0 | 0.00 | 0.08 | 0.00 | 95 | 1010.9 |
| 20260510045021 | 50 | 0 | 0.0 | 0.0 | 0.00 | 0.08 | 0.00 | 95 | 1011.1 |
| 20260510044535 | 50 | 0 | 0.0 | 0.0 | 0.00 | 0.08 | 0.00 | 95 | 1011.0 |
| 20260510044019 | 50 | 0 | 0.0 | 0.0 | 0.00 | 0.08 | 0.00 | 95 | 1011.0 |
| 20260510043519 | 50 | 0 | 0.0 | 0.0 | 0.00 | 0.08 | 0.00 | 95 | 1011.1 |
| 20260510043037 | 50 | 0 | 0.0 | 0.0 | 0.00 | 0.08 | 0.00 | 94 | 1011.0 |
| 20260510042522 | 50 | 0 | 0.0 | 0.0 | 0.00 | 0.08 | 0.00 | 94 | 1010.9 |
| 20260510042019 | 49 | 0 | 0.0 | 0.0 | 0.00 | 0.08 | 0.00 | 94 | 1010.9 |
| 20260510041535 | 49 | 0 | 0.0 | 0.0 | 0.00 | 0.08 | 0.00 | 94 | 1011.0 |
| 20260510041019 | 49 | 0 | 0.0 | 0.0 | 0.00 | 0.08 | 0.00 | 94 | 1011.0 |
| 20260510040519 | 49 | 0 | 0.0 | 0.0 | 0.00 | 0.08 | 0.00 | 94 | 1011.0 |
| 20260510040030 | 49 | 0 | 0.0 | 0.0 | 0.00 | 0.08 | 0.00 | 94 | 1011.0 |
| 20260510035518 | 49 | 0 | 0.0 | 0.0 | 0.00 | 0.08 | 0.08 | 94 | 1011.0 |
| 20260510035017 | 49 | 0 | 0.0 | 0.0 | 0.00 | 0.08 | 0.08 | 94 | 1010.9 |
| 20260510034535 | 49 | 0 | 0.0 | 0.0 | 0.00 | 0.08 | 0.08 | 94 | 1010.8 |
| 20260510034019 | 49 | 0 | 0.0 | 0.0 | 0.00 | 0.08 | 0.08 | 94 | 1011.0 |
| 20260510033522 | 49 | 0 | 0.0 | 0.0 | 0.00 | 0.08 | 0.08 | 94 | 1010.7 |
| 20260510033036 | 49 | 0 | 0.0 | 0.0 | 0.00 | 0.08 | 0.08 | 94 | 1010.8 |
| 20260510032519 | 49 | 0 | 0.0 | 0.0 | 0.00 | 0.08 | 0.08 | 94 | 1010.8 |
| 20260510032016 | 49 | 0 | 0.0 | 0.0 | 0.00 | 0.08 | 0.08 | 94 | 1010.8 |
| 20260510031534 | 49 | 0 | 0.0 | 0.0 | 0.00 | 0.08 | 0.08 | 93 | 1010.7 |
| 20260510031016 | 49 | 0 | 0.0 | 0.0 | 0.00 | 0.08 | 0.08 | 93 | 1010.7 |
| 20260510030522 | 49 | 0 | 0.0 | 0.0 | 0.00 | 0.08 | 0.08 | 93 | 1010.7 |
| 20260510030044 | 49 | 0 | 0.0 | 0.0 | 0.00 | 0.08 | 0.08 | 93 | 1010.6 |
| 20260510025521 | 49 | 0 | 0.0 | 0.0 | 0.00 | 0.08 | 0.08 | 93 | 1010.6 |
| 20260510025018 | 49 | 0 | 0.0 | 0.0 | 0.00 | 0.08 | 0.08 | 93 | 1010.6 |
| 20260510024530 | 49 | 0 | 0.0 | 0.0 | 0.00 | 0.08 | 0.08 | 93 | 1010.6 |
| 20260510024019 | 49 | 0 | 0.0 | 0.0 | 0.00 | 0.08 | 0.08 | 92 | 1010.5 |
| 20260510023516 | 49 | 0 | 0.0 | 0.0 | 0.00 | 0.08 | 0.08 | 92 | 1010.6 |
| 20260510023035 | 50 | 0 | 0.0 | 0.0 | 0.01 | 0.08 | 0.08 | 92 | 1010.5 |
| 20260510022516 | 50 | 0 | 0.0 | 0.0 | 0.01 | 0.08 | 0.08 | 92 | 1010.5 |
| 20260510022018 | 50 | 0 | 0.0 | 0.0 | 0.01 | 0.08 | 0.08 | 92 | 1010.6 |
| 20260510021535 | 50 | 0 | 0.0 | 0.0 | 0.01 | 0.08 | 0.08 | 93 | 1010.8 |
| 20260510021018 | 50 | 0 | 0.0 | 0.0 | 0.01 | 0.08 | 0.08 | 92 | 1010.6 |
| 20260510020522 | 51 | 0 | 0.0 | 0.0 | 0.01 | 0.08 | 0.08 | 92 | 1010.5 |
| 20260510020035 | 51 | 0 | 0.0 | 0.0 | 0.01 | 0.08 | 0.08 | 93 | 1010.7 |
| 20260510015517 | 51 | 0 | 0.0 | 0.0 | 0.01 | 0.08 | 0.08 | 93 | 1010.6 |
| 20260510015018 | 51 | 0 | 0.0 | 0.0 | 0.01 | 0.08 | 0.08 | 92 | 1010.4 |
| 20260510014535 | 51 | 0 | 0.0 | 0.0 | 0.01 | 0.08 | 0.08 | 92 | 1010.3 |
| 20260510014017 | 51 | 0 | 0.0 | 0.0 | 0.01 | 0.08 | 0.08 | 92 | 1010.5 |
| 20260510013518 | 51 | 0 | 0.0 | 0.0 | 0.01 | 0.08 | 0.08 | 92 | 1010.6 |
| 20260510013033 | 51 | 0 | 0.0 | 0.0 | 0.00 | 0.07 | 0.07 | 92 | 1010.6 |
| 20260510012517 | 52 | 0 | 0.0 | 0.0 | 0.00 | 0.07 | 0.07 | 92 | 1010.6 |
| 20260510012019 | 52 | 0 | 0.0 | 0.0 | 0.00 | 0.07 | 0.07 | 92 | 1010.6 |
| 20260510011545 | 52 | 0 | 0.0 | 0.0 | 0.00 | 0.07 | 0.07 | 92 | 1010.4 |
| 20260510011016 | 52 | 0 | 0.0 | 0.0 | 0.00 | 0.07 | 0.07 | 92 | 1010.4 |
| 20260510010518 | 52 | 0 | 0.0 | 0.0 | 0.00 | 0.07 | 0.07 | 92 | 1010.4 |
| 20260510010035 | 53 | 0 | 0.0 | 0.0 | 0.00 | 0.07 | 0.07 | 92 | 1010.4 |
| 20260510005518 | 53 | 0 | 0.0 | 0.0 | 0.00 | 0.07 | 0.07 | 92 | 1010.3 |
| 20260510005016 | 53 | 0 | 0.0 | 0.0 | 0.00 | 0.07 | 0.07 | 92 | 1010.2 |
| 20260510004536 | 53 | 0 | 0.0 | 0.0 | 0.00 | 0.07 | 0.07 | 91 | 1010.1 |
| 20260510004018 | 53 | 0 | 0.0 | 0.0 | 0.00 | 0.07 | 0.07 | 91 | 1010.0 |
| 20260510003517 | 53 | 0 | 0.0 | 0.0 | 0.00 | 0.07 | 0.07 | 91 | 1010.1 |
| 20260510003040 | 53 | 0 | 0.0 | 0.0 | 0.01 | 0.07 | 0.07 | 91 | 1010.0 |
| 20260510002520 | 54 | 0 | 0.0 | 0.0 | 0.01 | 0.07 | 0.07 | 91 | 1010.0 |
| 20260510002017 | 54 | 0 | 0.0 | 0.0 | 0.01 | 0.07 | 0.07 | 91 | 1009.9 |
| 20260510001530 | 54 | 0 | 0.0 | 0.0 | 0.01 | 0.07 | 0.07 | 90 | 1010.0 |
| 20260510001017 | 54 | 0 | 0.0 | 0.0 | 0.01 | 0.07 | 0.07 | 90 | 1010.0 |
| 20260510000517 | 54 | 0 | 0.0 | 0.0 | 0.01 | 0.07 | 0.07 | 90 | 1009.9 |
| 20260510000036 | 55 | 0 | 0.0 | 0.0 | 0.01 | 0.07 | 0.07 | 90 | 1010.0 |
| 20260509235518 | 55 | 0 | 0.0 | 0.0 | 0.01 | 0.07 | 0.07 | 90 | 1010.0 |
| 20260509235018 | 55 | 0 | 0.0 | 0.0 | 0.01 | 0.07 | 0.07 | 90 | 1010.1 |
| 20260509234541 | 55 | 0 | 0.0 | 0.0 | 0.01 | 0.07 | 0.07 | 90 | 1010.0 |
| 20260509234019 | 56 | 0 | 0.0 | 0.0 | 0.01 | 0.07 | 0.07 | 90 | 1010.0 |
| 20260509233517 | 56 | 0 | 0.0 | 0.0 | 0.01 | 0.07 | 0.07 | 90 | 1010.1 |
| 20260509233037 | 56 | 0 | 0.0 | 0.0 | 0.00 | 0.06 | 0.06 | 89 | 1010.0 |
| 20260509232516 | 56 | 0 | 0.0 | 0.0 | 0.01 | 0.06 | 0.06 | 89 | 1010.0 |
| 20260509232023 | 56 | 0 | 0.0 | 0.0 | 0.01 | 0.06 | 0.06 | 89 | 1009.9 |
| 20260509231539 | 56 | 0 | 0.0 | 0.0 | 0.01 | 0.06 | 0.06 | 89 | 1009.9 |
| 20260509231018 | 56 | 0 | 0.0 | 0.0 | 0.01 | 0.06 | 0.06 | 90 | 1009.9 |
| 20260509230518 | 56 | 0 | 0.0 | 0.0 | 0.01 | 0.06 | 0.06 | 90 | 1009.9 |
| 20260509230031 | 56 | 0 | 0.0 | 0.0 | 0.01 | 0.06 | 0.06 | 90 | 1009.8 |
| 20260509225518 | 56 | 0 | 0.0 | 1.7 | 0.01 | 0.06 | 0.06 | 90 | 1009.9 |
| 20260509225018 | 56 | 0 | 0.0 | 1.7 | 0.01 | 0.06 | 0.06 | 90 | 1009.9 |
| 20260509224537 | 56 | 0 | 0.0 | 1.7 | 0.01 | 0.06 | 0.06 | 90 | 1010.0 |
| 20260509224019 | 56 | 0 | 0.0 | 0.0 | 0.02 | 0.06 | 0.06 | 91 | 1010.1 |
| 20260509223520 | 56 | 0 | 0.0 | 0.0 | 0.02 | 0.06 | 0.06 | 91 | 1010.2 |
| 20260509223036 | 56 | 0 | 0.0 | 0.0 | 0.02 | 0.06 | 0.06 | 91 | 1010.2 |
| 20260509222518 | 56 | 0 | 0.0 | 0.0 | 0.01 | 0.05 | 0.05 | 91 | 1010.1 |
| 20260509222018 | 55 | 0 | 0.0 | 1.7 | 0.01 | 0.05 | 0.05 | 91 | 1010.0 |
| 20260509221535 | 55 | 0 | 0.0 | 1.7 | 0.02 | 0.05 | 0.05 | 91 | 1010.0 |
| 20260509221018 | 55 | 0 | 0.0 | 1.7 | 0.02 | 0.05 | 0.05 | 91 | 1010.0 |
| 20260509220518 | 55 | 0 | 0.0 | 0.0 | 0.02 | 0.05 | 0.05 | 91 | 1009.9 |
| 20260509220034 | 55 | 0 | 0.0 | 0.0 | 0.02 | 0.05 | 0.05 | 92 | 1010.2 |
| 20260509215518 | 55 | 0 | 0.0 | 0.0 | 0.03 | 0.05 | 0.05 | 92 | 1010.3 |
| 20260509215017 | 55 | 0 | 0.0 | 0.0 | 0.03 | 0.05 | 0.05 | 92 | 1010.4 |
| 20260509214534 | 55 | 0 | 0.0 | 0.0 | 0.03 | 0.05 | 0.05 | 91 | 1010.2 |
| 20260509214018 | 55 | 0 | 0.0 | 0.0 | 0.02 | 0.04 | 0.04 | 91 | 1010.6 |
| 20260509213518 | 55 | 0 | 0.0 | 0.0 | 0.03 | 0.04 | 0.04 | 92 | 1010.4 |
| 20260509213035 | 55 | 0 | 0.0 | 0.0 | 0.03 | 0.04 | 0.04 | 91 | 1010.4 |
| 20260509212517 | 55 | 0 | 0.0 | 0.0 | 0.03 | 0.04 | 0.04 | 91 | 1010.1 |
| 20260509212020 | 55 | 0 | 0.0 | 0.0 | 0.03 | 0.04 | 0.04 | 91 | 1010.2 |
| 20260509211532 | 55 | 0 | 0.0 | 0.0 | 0.02 | 0.03 | 0.03 | 90 | 1010.3 |
| 20260509211019 | 55 | 0 | 0.0 | 0.0 | 0.02 | 0.03 | 0.03 | 90 | 1010.1 |
| 20260509210520 | 56 | 0 | 0.0 | 0.0 | 0.02 | 0.03 | 0.03 | 90 | 1010.2 |
| 20260509210044 | 56 | 0 | 0.0 | 0.0 | 0.02 | 0.03 | 0.03 | 90 | 1010.3 |
| 20260509205518 | 56 | 0 | 0.0 | 0.0 | 0.01 | 0.02 | 0.02 | 89 | 1010.2 |
| 20260509205018 | 56 | 0 | 0.0 | 0.0 | 0.01 | 0.02 | 0.02 | 89 | 1010.1 |
| 20260509204540 | 55 | 0 | 0.0 | 0.0 | 0.01 | 0.02 | 0.02 | 88 | 1009.9 |
| 20260509204022 | 55 | 0 | 0.0 | 0.0 | 0.01 | 0.02 | 0.02 | 87 | 1010.0 |
| 20260509203517 | 56 | 0 | 0.0 | 0.9 | 0.00 | 0.01 | 0.01 | 87 | 1010.1 |
| 20260509203040 | 56 | 0 | 0.0 | 4.3 | 0.00 | 0.01 | 0.01 | 87 | 1010.3 |
| 20260509202518 | 56 | 0 | 0.0 | 4.3 | 0.01 | 0.01 | 0.01 | 85 | 1010.2 |
| 20260509202019 | 56 | 284 | 0.0 | 6.1 | 0.01 | 0.01 | 0.01 | 85 | 1010.3 |
| 20260509201536 | 56 | 0 | 0.0 | 6.1 | 0.01 | 0.01 | 0.01 | 86 | 1010.3 |
| 20260509201022 | 56 | 0 | 0.0 | 1.7 | 0.01 | 0.01 | 0.01 | 87 | 1010.1 |
| 20260509200518 | 56 | 0 | 0.0 | 1.7 | 0.01 | 0.01 | 0.01 | 87 | 1010.4 |
| 20260509200034 | 56 | 0 | 0.0 | 2.6 | 0.01 | 0.01 | 0.01 | 87 | 1010.5 |
| 20260509195517 | 56 | 0 | 0.0 | 3.5 | 0.01 | 0.01 | 0.01 | 87 | 1010.3 |
| 20260509195018 | 56 | 0 | 0.0 | 3.5 | 0.01 | 0.01 | 0.01 | 88 | 1010.5 |
| 20260509194531 | 56 | 0 | 0.0 | 3.5 | 0.01 | 0.01 | 0.01 | 88 | 1010.4 |
| 20260509194016 | 56 | 0 | 0.0 | 3.5 | 0.01 | 0.01 | 0.01 | 87 | 1010.8 |
| 20260509193523 | 56 | 0 | 0.0 | 3.5 | 0.01 | 0.01 | 0.01 | 87 | 1011.0 |
| 20260509193040 | 56 | 0 | 0.0 | 2.6 | 0.01 | 0.01 | 0.01 | 87 | 1010.9 |